When you browse on this site, cookies collect data to enhance your experience and personalize the content and advertising you see.
Visit our Privacy Policy to learn more. By continuing to use the site, you agree to this use of cookies and data.
  • In Hungary
  • List of Countries
  • For 7 days
  • Water Temperature
  • Satellite Maps
  • Weather Map
  • News
  • Weather Widgets
  • user-avatar
    Login

    Hourly Weather Halifax

    Today, 19 December, Wednesday

    Time Temperature Precipitation Wind Pressure Humidity
    00:00 +4°C° 0 mm 3 mps 734 mmHg 93%
    01:00 +4°C° 0 mm 3 mps 734 mmHg 94%
    02:00 +4°C° 0 mm 3 mps 734 mmHg 94%
    03:00 +4°C° 0 mm 3 mps 734 mmHg 94%
    04:00 +4°C° 0 mm 3 mps 734 mmHg 94%
    05:00 +4°C° 0 mm 3 mps 734 mmHg 94%
    06:00 +4°C° 0 mm 3 mps 734 mmHg 95%
    07:00 +4°C° 0.1 mm 3 mps 735 mmHg 94%
    08:00 +4°C° 0.1 mm 3 mps 735 mmHg 94%
    09:00 +5°C° 0.1 mm 2 mps 735 mmHg 94%
    10:00 +5°C° 0 mm 3 mps 735 mmHg 91%
    11:00 +5°C° 0 mm 3 mps 735 mmHg 87%
    12:00 +6°C° 0 mm 4 mps 735 mmHg 83%
    13:00 +6°C° 0 mm 4 mps 735 mmHg 83%
    14:00 +5°C° 0 mm 4 mps 734 mmHg 83%
    15:00 +5°C° 0 mm 4 mps 734 mmHg 83%
    16:00 +5°C° 0 mm 4 mps 734 mmHg 84%
    17:00 +4°C° 0 mm 4 mps 734 mmHg 85%
    18:00 +3°C° 0 mm 5 mps 734 mmHg 86%
    19:00 +3°C° 0.3 mm 5 mps 733 mmHg 87%
    20:00 +5°C° 0.3 mm 5 mps 733 mmHg 88%
    21:00 +5°C° 0.3 mm 5 mps 733 mmHg 88%
    22:00 +5°C° 0 mm 5 mps 733 mmHg 89%
    23:00 +4°C° 0 mm 4 mps 733 mmHg 89%

    Tomorrow, 20 December, Thursday

    Time Temperature Precipitation Wind Pressure Humidity
    00:00 +4°C° 0 mm 4 mps 733 mmHg 90%
    01:00 +4°C° 0 mm 4 mps 733 mmHg 90%
    02:00 +4°C° 0 mm 4 mps 733 mmHg 90%
    03:00 +4°C° 0 mm 4 mps 733 mmHg 90%
    04:00 +3°C° 0.2 mm 5 mps 734 mmHg 89%
    05:00 +5°C° 0.2 mm 5 mps 734 mmHg 88%
    06:00 +5°C° 0.2 mm 5 mps 734 mmHg 87%
    07:00 +5°C° 0.1 mm 5 mps 734 mmHg 86%
    08:00 +4°C° 0.1 mm 6 mps 735 mmHg 86%
    09:00 +4°C° 0.1 mm 6 mps 735 mmHg 85%
    10:00 +5°C° 0.2 mm 6 mps 735 mmHg 82%
    11:00 +5°C° 0.2 mm 6 mps 735 mmHg 78%
    12:00 +5°C° 0.2 mm 7 mps 736 mmHg 75%
    13:00 +5°C° 0.3 mm 6 mps 736 mmHg 76%
    14:00 +5°C° 0.3 mm 6 mps 736 mmHg 77%
    15:00 +5°C° 0.3 mm 6 mps 736 mmHg 78%
    16:00 +5°C° 0.1 mm 5 mps 736 mmHg 80%
    17:00 +5°C° 0.1 mm 5 mps 736 mmHg 82%
    18:00 +5°C° 0.1 mm 5 mps 736 mmHg 84%
    19:00 +4°C° 0 mm 4 mps 736 mmHg 85%
    20:00 +4°C° 0 mm 4 mps 736 mmHg 86%
    21:00 +4°C° 0 mm 4 mps 736 mmHg 87%
    22:00 +4°C° 0 mm 4 mps 735 mmHg 88%
    23:00 +4°C° 0 mm 3 mps 735 mmHg 89%

    Day after tomorrow, 21 December, Friday

    Time Temperature Precipitation Wind Pressure Humidity
    00:00 +4°C° 0 mm 3 mps 734 mmHg 90%
    01:00 +4°C° 0.5 mm 3 mps 733 mmHg 91%
    02:00 +4°C° 0.5 mm 3 mps 732 mmHg 93%
    03:00 +4°C° 0.5 mm 3 mps 731 mmHg 94%
    04:00 +4°C° 1.5 mm 3 mps 730 mmHg 94%
    05:00 +4°C° 1.5 mm 4 mps 729 mmHg 95%
    06:00 +5°C° 1.5 mm 4 mps 728 mmHg 95%
    07:00 +4°C° 0.4 mm 6 mps 729 mmHg 92%
    08:00 +5°C° 0.4 mm 7 mps 729 mmHg 88%
    09:00 +6°C° 0.4 mm 8 mps 729 mmHg 85%
    10:00 +6°C° 0.1 mm 9 mps 730 mmHg 80%
    11:00 +6°C° 0.1 mm 10 mps 730 mmHg 75%
    12:00 +6°C° 0.1 mm 10 mps 731 mmHg 70%
    13:00 +6°C° 0 mm 10 mps 731 mmHg 70%
    14:00 +6°C° 0 mm 10 mps 731 mmHg 70%
    15:00 +6°C° 0 mm 10 mps 732 mmHg 70%
    16:00 +6°C° 0 mm 9 mps 732 mmHg 72%
    17:00 +6°C° 0 mm 8 mps 732 mmHg 74%
    18:00 +6°C° 0 mm 8 mps 733 mmHg 76%
    19:00 +6°C° 0.2 mm 7 mps 733 mmHg 80%
    20:00 +5°C° 0.2 mm 6 mps 733 mmHg 83%
    21:00 +5°C° 0.2 mm 6 mps 733 mmHg 87%
    22:00 +6°C° 0.1 mm 5 mps 733 mmHg 88%
    23:00 +6°C° 0.1 mm 5 mps 733 mmHg 88%

    22 December, Saturday

    Time Temperature Precipitation Wind Pressure Humidity
    00:00 +6°C° 0.1 mm 5 mps 733 mmHg 89%
    01:00 +5°C° 0.1 mm 6 mps 733 mmHg 86%
    02:00 +5°C° 0.1 mm 7 mps 733 mmHg 84%
    03:00 +5°C° 0.1 mm 8 mps 734 mmHg 81%
    04:00 +5°C° 0.1 mm 8 mps 734 mmHg 81%
    05:00 +6°C° 0.1 mm 9 mps 735 mmHg 80%
    06:00 +6°C° 0.1 mm 9 mps 736 mmHg 80%
    07:00 +5°C° 0.1 mm 8 mps 737 mmHg 80%
    08:00 +5°C° 0.1 mm 7 mps 738 mmHg 81%
    09:00 +5°C° 0.1 mm 7 mps 739 mmHg 81%
    10:00 +5°C° 0.1 mm 7 mps 740 mmHg 79%
    11:00 +5°C° 0.1 mm 7 mps 740 mmHg 77%
    12:00 +6°C° 0.1 mm 8 mps 741 mmHg 76%
    13:00 +5°C° 0.1 mm 7 mps 742 mmHg 76%
    14:00 +5°C° 0.1 mm 7 mps 742 mmHg 75%
    15:00 +5°C° 0.1 mm 7 mps 742 mmHg 75%
    16:00 +5°C° 0 mm 6 mps 743 mmHg 77%
    17:00 +4°C° 0 mm 6 mps 744 mmHg 78%
    18:00 +5°C° 0 mm 5 mps 744 mmHg 79%
    19:00 +5°C° 0 mm 5 mps 745 mmHg 80%
    20:00 +5°C° 0 mm 5 mps 745 mmHg 81%
    21:00 +5°C° 0 mm 5 mps 746 mmHg 82%
    22:00 +5°C° 0 mm 5 mps 746 mmHg 83%
    23:00 +3°C° 0 mm 5 mps 746 mmHg 83%

    23 December, Sunday

    Time Temperature Precipitation Wind Pressure Humidity
    00:00 +3°C° 0 mm 5 mps 747 mmHg 84%
    01:00 +3°C° 0 mm 5 mps 747 mmHg 85%
    02:00 +3°C° 0 mm 5 mps 747 mmHg 85%
    03:00 +4°C° 0 mm 4 mps 747 mmHg 85%
    04:00 +4°C° 0 mm 4 mps 748 mmHg 86%
    05:00 +4°C° 0 mm 4 mps 748 mmHg 87%
    06:00 +3°C° 0 mm 3 mps 748 mmHg 88%
    07:00 +3°C° 0 mm 3 mps 749 mmHg 89%
    08:00 +3°C° 0 mm 3 mps 749 mmHg 89%
    09:00 +3°C° 0 mm 3 mps 750 mmHg 90%
    10:00 +4°C° 0 mm 3 mps 750 mmHg 88%
    11:00 +4°C° 0 mm 3 mps 750 mmHg 86%
    12:00 +5°C° 0 mm 3 mps 750 mmHg 84%
    13:00 +6°C° 0 mm 2 mps 750 mmHg 85%
    14:00 +7°C° 0 mm 1 mps 750 mmHg 86%
    15:00 +6°C° 0 mm 1 mps 750 mmHg 87%
    16:00 +6°C° 0 mm 1 mps 750 mmHg 87%
    17:00 +6°C° 0 mm 1 mps 750 mmHg 87%
    18:00 +6°C° 0 mm 1 mps 750 mmHg 87%
    19:00 +6°C° 0.1 mm 1 mps 751 mmHg 87%
    20:00 +5°C° 0.1 mm 2 mps 751 mmHg 87%
    21:00 +5°C° 0.1 mm 2 mps 751 mmHg 88%
    22:00 +5°C° 0.4 mm 2 mps 751 mmHg 89%
    23:00 +5°C° 0.4 mm 2 mps 751 mmHg 90%

    24 December, Monday

    Time Temperature Precipitation Wind Pressure Humidity
    00:00 +4°C° 0.4 mm 3 mps 751 mmHg 91%
    01:00 +4°C° 1 mm 3 mps 750 mmHg 92%
    02:00 +4°C° 1 mm 3 mps 750 mmHg 92%
    03:00 +4°C° 1 mm 4 mps 750 mmHg 93%
    04:00 +4°C° 1.2 mm 4 mps 750 mmHg 93%
    05:00 +3°C° 1.2 mm 5 mps 749 mmHg 93%
    06:00 +3°C° 1.2 mm 5 mps 749 mmHg 93%
    07:00 +5°C° 0.9 mm 4 mps 749 mmHg 94%
    08:00 +5°C° 0.9 mm 4 mps 749 mmHg 95%
    09:00 +5°C° 0.9 mm 3 mps 750 mmHg 96%
    10:00 +5°C° 0.2 mm 3 mps 750 mmHg 96%
    11:00 +7°C° 0.2 mm 2 mps 750 mmHg 96%
    12:00 +7°C° 0.2 mm 2 mps 750 mmHg 97%
    13:00 +7°C° 0 mm 2 mps 750 mmHg 97%
    14:00 +9°C° 0 mm 1 mps 750 mmHg 97%
    15:00 +9°C° 0 mm 1 mps 750 mmHg 96%
    16:00 +9°C° 0.1 mm 1 mps 750 mmHg 96%
    17:00 +9°C° 0.1 mm 1 mps 751 mmHg 96%
    18:00 +9°C° 0.1 mm 1 mps 751 mmHg 96%
    19:00 +9°C° 0 mm 1 mps 751 mmHg 96%
    20:00 +9°C° 0 mm 1 mps 751 mmHg 96%
    21:00 +9°C° 0 mm 1 mps 752 mmHg 96%
    22:00 +9°C° 0 mm 1 mps 752 mmHg 96%
    23:00 +9°C° 0 mm 1 mps 752 mmHg 96%
    Show more